AFR1276 LEAL-GMMN

Flight info

Callsign AFR1276
Flight time 1h 27m
Altitude 37000
Route RESTU N851 MGA N869 GALTO UB11 TUSOR
Aircraft A320/M-SDE2E3FGHIJ4RWY/HB1D1G1

Departure

Time 2026-05-06 13:48
Airport Alicante-Elche Miguel Hernández Airport (LEAL)

Arrival

Time 2026-05-06 15:15
Airport Mohammed V International Airport (GMMN)
Time Latitude Longitude Altitude Speed Heading
2026-05-06 13:25 38.28541 -0.55348 93 ft 0 kts
2026-05-06 13:37 38.28532 -0.55350 93 ft 4 kts
2026-05-06 13:37 38.28505 -0.55353 93 ft 4 kts 360°
2026-05-06 13:37 38.28478 -0.55350 93 ft 4 kts 340°
2026-05-06 13:38 38.28459 -0.55333 94 ft 3 kts 285°
2026-05-06 13:38 38.28458 -0.55324 92 ft 0 kts 280°
2026-05-06 13:40 38.28459 -0.55330 96 ft 1 kts 280°
2026-05-06 13:41 38.28465 -0.55378 95 ft 6 kts 280°
2026-05-06 13:41 38.28472 -0.55425 98 ft 9 kts 280°
2026-05-06 13:41 38.28483 -0.55501 98 ft 7 kts 280°
2026-05-06 13:41 38.28490 -0.55556 98 ft 6 kts 272°
2026-05-06 13:42 38.28462 -0.55595 99 ft 6 kts 201°
2026-05-06 13:42 38.28419 -0.55606 98 ft 7 kts 190°
2026-05-06 13:42 38.28376 -0.55634 96 ft 7 kts 239°
2026-05-06 13:42 38.28376 -0.55694 96 ft 6 kts 279°
2026-05-06 13:43 38.28390 -0.55800 96 ft 20 kts 279°
2026-05-06 13:43 38.28416 -0.55978 98 ft 20 kts 281°
2026-05-06 13:43 38.28441 -0.56144 98 ft 18 kts 280°
2026-05-06 13:43 38.28458 -0.56277 102 ft 13 kts 280°
2026-05-06 13:44 38.28473 -0.56381 107 ft 17 kts 280°
2026-05-06 13:44 38.28493 -0.56524 113 ft 14 kts 280°
2026-05-06 13:44 38.28507 -0.56624 118 ft 9 kts 280°
2026-05-06 13:44 38.28517 -0.56700 120 ft 13 kts 280°
2026-05-06 13:45 38.28536 -0.56831 126 ft 13 kts 280°
2026-05-06 13:45 38.28557 -0.56984 133 ft 4 kts 280°
2026-05-06 13:45 38.28562 -0.57023 135 ft 11 kts 280°
2026-05-06 13:46 38.28582 -0.57161 141 ft 16 kts 280°
2026-05-06 13:46 38.28598 -0.57273 146 ft 10 kts 280°
2026-05-06 13:46 38.28610 -0.57359 149 ft 10 kts 280°
2026-05-06 13:46 38.28579 -0.57420 150 ft 13 kts 204°
2026-05-06 13:47 38.28483 -0.57443 152 ft 12 kts 181°
2026-05-06 13:47 38.28434 -0.57366 150 ft 14 kts 100°
2026-05-06 13:47 38.28412 -0.57202 145 ft 36 kts 99°
2026-05-06 13:47 38.28314 -0.56477 122 ft 127 kts 99°
2026-05-06 13:48 38.28113 -0.55150 500 ft 163 kts 101°
2026-05-06 13:48 38.27841 -0.53707 1486 ft 168 kts 102°
2026-05-06 13:48 38.27547 -0.52333 2653 ft 156 kts 104°
2026-05-06 13:48 38.27249 -0.50974 3277 ft 164 kts 103°
2026-05-06 13:49 38.26956 -0.49530 3781 ft 174 kts 103°
2026-05-06 13:49 38.26690 -0.47938 4146 ft 193 kts 99°
2026-05-06 13:49 38.26454 -0.46145 4454 ft 219 kts 98°
2026-05-06 13:49 38.26207 -0.44116 4855 ft 243 kts 99°
2026-05-06 13:50 38.25913 -0.41975 5673 ft 247 kts 100°
2026-05-06 13:50 38.25604 -0.39790 6431 ft 256 kts 101°
2026-05-06 13:50 38.25286 -0.37521 7154 ft 264 kts 101°
2026-05-06 13:50 38.24968 -0.35202 8024 ft 265 kts 100°
2026-05-06 13:51 38.24493 -0.32942 9060 ft 258 kts 117°
2026-05-06 13:51 38.23422 -0.31182 10027 ft 249 kts 146°
2026-05-06 13:51 38.21913 -0.30213 10677 ft 248 kts 170°
2026-05-06 13:51 38.20124 -0.30118 10822 ft 271 kts 194°
2026-05-06 13:52 38.18352 -0.31081 11139 ft 283 kts 224°
2026-05-06 13:52 38.17241 -0.33036 12189 ft 268 kts 248°
2026-05-06 13:52 38.16833 -0.35313 13115 ft 265 kts 270°
2026-05-06 13:52 38.17199 -0.37602 13899 ft 269 kts 294°
2026-05-06 13:53 38.18163 -0.39667 14606 ft 273 kts 300°
2026-05-06 13:53 38.19186 -0.41708 15296 ft 276 kts 300°
2026-05-06 13:53 38.20226 -0.43777 15989 ft 279 kts 299°
2026-05-06 13:53 38.21273 -0.45865 16674 ft 282 kts 299°
2026-05-06 13:54 38.22328 -0.47972 17364 ft 284 kts 298°
2026-05-06 13:54 38.23395 -0.50107 18012 ft 287 kts 298°
2026-05-06 13:54 38.24464 -0.52258 18632 ft 290 kts 298°
2026-05-06 13:54 38.25545 -0.54438 19246 ft 292 kts 297°
2026-05-06 13:55 38.26494 -0.56713 19830 ft 290 kts 286°
2026-05-06 13:55 38.26985 -0.59230 20124 ft 300 kts 272°
2026-05-06 13:55 38.27143 -0.61954 20256 ft 318 kts 271°
2026-05-06 13:55 38.27298 -0.64836 20384 ft 335 kts 271°
2026-05-06 13:56 38.27466 -0.67871 20511 ft 352 kts 271°
2026-05-06 13:56 38.27646 -0.71052 20637 ft 368 kts 272°
2026-05-06 13:56 38.27838 -0.74368 20764 ft 383 kts 272°
2026-05-06 13:56 38.28040 -0.77807 20899 ft 396 kts 272°
2026-05-06 13:57 38.28247 -0.81353 21067 ft 406 kts 272°
2026-05-06 13:57 38.28457 -0.84960 21411 ft 410 kts 272°
2026-05-06 13:57 38.28668 -0.88587 21795 ft 412 kts 272°
2026-05-06 13:57 38.28831 -0.92236 22190 ft 413 kts 267°
2026-05-06 13:58 38.28524 -0.95862 22578 ft 413 kts 256°
2026-05-06 13:58 38.27629 -0.99386 22949 ft 414 kts 245°
2026-05-06 13:58 38.26214 -1.02571 23325 ft 416 kts 235°
2026-05-06 13:58 38.24377 -1.05438 23669 ft 418 kts 231°
2026-05-06 13:59 38.22489 -1.08264 23992 ft 420 kts 231°
2026-05-06 13:59 38.20599 -1.11097 24303 ft 421 kts 231°
2026-05-06 13:59 38.18705 -1.13939 24606 ft 422 kts 231°
2026-05-06 13:59 38.16812 -1.16785 24921 ft 421 kts 231°
2026-05-06 14:00 38.14922 -1.19630 25233 ft 421 kts 231°
2026-05-06 14:00 38.13029 -1.22486 25515 ft 422 kts 231°
2026-05-06 14:00 38.11132 -1.25341 25783 ft 424 kts 231°
2026-05-06 14:00 38.09225 -1.28201 26044 ft 425 kts 231°
2026-05-06 14:01 38.07310 -1.31062 26264 ft 426 kts 231°
2026-05-06 14:01 38.05391 -1.33929 26465 ft 427 kts 231°
2026-05-06 14:01 38.04115 -1.35835 26602 ft 428 kts 231°
2026-05-06 14:01 38.02194 -1.38708 26873 ft 427 kts 231°
2026-05-06 14:02 38.00279 -1.41566 27140 ft 425 kts 231°
2026-05-06 14:02 37.98364 -1.44426 27416 ft 424 kts 231°
2026-05-06 14:02 37.96455 -1.47275 27713 ft 423 kts 231°
2026-05-06 14:02 37.94551 -1.50109 28003 ft 422 kts 231°
2026-05-06 14:03 37.92649 -1.52936 28280 ft 421 kts 231°
2026-05-06 14:03 37.90873 -1.55878 28564 ft 419 kts 238°
2026-05-06 14:03 37.89480 -1.59158 28869 ft 418 kts 245°
2026-05-06 14:03 37.88249 -1.62485 29179 ft 417 kts 245°
2026-05-06 14:04 37.87017 -1.65797 29521 ft 415 kts 245°
2026-05-06 14:04 37.85788 -1.69096 29833 ft 414 kts 245°
2026-05-06 14:04 37.84560 -1.72386 30111 ft 413 kts 245°
2026-05-06 14:04 37.83332 -1.75674 30402 ft 412 kts 245°
2026-05-06 14:05 37.82110 -1.78939 30701 ft 410 kts 245°
2026-05-06 14:05 37.80891 -1.82187 30985 ft 408 kts 245°
2026-05-06 14:05 37.79678 -1.85424 31284 ft 407 kts 245°
2026-05-06 14:05 37.78472 -1.88649 31563 ft 405 kts 245°
2026-05-06 14:06 37.77270 -1.91858 31868 ft 403 kts 244°
2026-05-06 14:06 37.76072 -1.95044 32193 ft 400 kts 244°
2026-05-06 14:06 37.74878 -1.98209 32489 ft 398 kts 244°
2026-05-06 14:06 37.73681 -2.01369 32787 ft 397 kts 244°
2026-05-06 14:07 37.72493 -2.04506 33088 ft 395 kts 244°
2026-05-06 14:07 37.71309 -2.07630 33402 ft 393 kts 244°
2026-05-06 14:07 37.70134 -2.10736 33701 ft 392 kts 244°
2026-05-06 14:07 37.68963 -2.13834 33928 ft 391 kts 244°
2026-05-06 14:08 37.67790 -2.16940 34106 ft 391 kts 244°
2026-05-06 14:08 37.66624 -2.20029 34329 ft 391 kts 244°
2026-05-06 14:08 37.65450 -2.23126 34567 ft 390 kts 244°
2026-05-06 14:08 37.64276 -2.26210 34764 ft 390 kts 244°
2026-05-06 14:09 37.63102 -2.29291 34977 ft 390 kts 244°
2026-05-06 14:09 37.61924 -2.32383 35173 ft 391 kts 244°
2026-05-06 14:09 37.60746 -2.35476 35369 ft 391 kts 244°
2026-05-06 14:09 37.59567 -2.38567 35567 ft 392 kts 244°
2026-05-06 14:10 37.58385 -2.41666 35746 ft 392 kts 244°
2026-05-06 14:10 37.57184 -2.44803 35919 ft 392 kts 244°
2026-05-06 14:10 37.56000 -2.47893 36083 ft 392 kts 244°
2026-05-06 14:10 37.54826 -2.50954 36251 ft 393 kts 244°
2026-05-06 14:11 37.53624 -2.54092 36412 ft 393 kts 244°
2026-05-06 14:11 37.52439 -2.57189 36574 ft 393 kts 244°
2026-05-06 14:11 37.51250 -2.60288 36730 ft 393 kts 244°
2026-05-06 14:11 37.50061 -2.63387 36876 ft 394 kts 244°
2026-05-06 14:12 37.47667 -2.69621 36904 ft 396 kts 244°
2026-05-06 14:12 37.45261 -2.75863 36898 ft 396 kts 244°
2026-05-06 14:13 37.42850 -2.82095 36899 ft 396 kts 244°
2026-05-06 14:13 37.40435 -2.88319 36899 ft 396 kts 244°
2026-05-06 14:14 37.38023 -2.94544 36912 ft 396 kts 244°
2026-05-06 14:14 37.35610 -3.00767 36905 ft 396 kts 244°
2026-05-06 14:15 37.33185 -3.06983 36927 ft 396 kts 244°
2026-05-06 14:15 37.30760 -3.13207 36919 ft 396 kts 244°
2026-05-06 14:16 37.28328 -3.19420 36930 ft 396 kts 244°
2026-05-06 14:16 37.25893 -3.25633 36934 ft 397 kts 244°
2026-05-06 14:17 37.23451 -3.31848 36937 ft 396 kts 244°
2026-05-06 14:17 37.20993 -3.38091 36945 ft 397 kts 244°
2026-05-06 14:18 37.18537 -3.44300 36959 ft 397 kts 243°
2026-05-06 14:18 37.16088 -3.50502 36949 ft 397 kts 244°
2026-05-06 14:19 37.13644 -3.56696 36958 ft 397 kts 244°
2026-05-06 14:19 37.11189 -3.62884 36955 ft 397 kts 243°
2026-05-06 14:20 37.08727 -3.69062 36958 ft 397 kts 243°
2026-05-06 14:20 37.06264 -3.75246 36930 ft 396 kts 243°
2026-05-06 14:21 37.03803 -3.81420 36931 ft 396 kts 243°
2026-05-06 14:21 37.01339 -3.87590 36941 ft 397 kts 243°
2026-05-06 14:22 36.98870 -3.93764 36933 ft 396 kts 243°
2026-05-06 14:22 36.96395 -3.99928 36928 ft 397 kts 243°
2026-05-06 14:23 36.93915 -4.06084 36928 ft 396 kts 243°
2026-05-06 14:23 36.91434 -4.12235 36895 ft 397 kts 243°
2026-05-06 14:24 36.88950 -4.18394 36908 ft 396 kts 243°
2026-05-06 14:24 36.86465 -4.24535 36916 ft 396 kts 243°
2026-05-06 14:25 36.83958 -4.30715 36922 ft 396 kts 243°
2026-05-06 14:25 36.81025 -4.36511 36927 ft 398 kts 229°
2026-05-06 14:26 36.76650 -4.40771 36928 ft 403 kts 216°
2026-05-06 14:26 36.71916 -4.44520 36927 ft 403 kts 216°
2026-05-06 14:27 36.67186 -4.48275 36929 ft 403 kts 216°
2026-05-06 14:27 36.62454 -4.52030 36919 ft 403 kts 216°
2026-05-06 14:28 36.57722 -4.55780 36924 ft 403 kts 216°
2026-05-06 14:28 36.52991 -4.59527 36927 ft 403 kts 216°
2026-05-06 14:29 36.48252 -4.63270 36925 ft 404 kts 216°
2026-05-06 14:29 36.43508 -4.67006 36926 ft 404 kts 216°
2026-05-06 14:30 36.38765 -4.70742 36904 ft 403 kts 216°
2026-05-06 14:30 36.34025 -4.74465 36924 ft 403 kts 216°
2026-05-06 14:31 36.29255 -4.78208 36927 ft 403 kts 216°
2026-05-06 14:31 36.24517 -4.81923 36936 ft 403 kts 216°
2026-05-06 14:32 36.19774 -4.85638 36933 ft 403 kts 216°
2026-05-06 14:32 36.15038 -4.89350 36927 ft 403 kts 216°
2026-05-06 14:33 36.10312 -4.93075 36917 ft 403 kts 217°
2026-05-06 14:33 36.05596 -4.96819 36933 ft 403 kts 217°
2026-05-06 14:34 36.01674 -4.99921 36944 ft 403 kts 217°
2026-05-06 14:34 35.96955 -5.03640 36950 ft 403 kts 216°
2026-05-06 14:35 35.92234 -5.07358 36956 ft 402 kts 216°
2026-05-06 14:35 35.87515 -5.11071 36956 ft 402 kts 216°
2026-05-06 14:36 35.82791 -5.14781 36936 ft 402 kts 216°
2026-05-06 14:36 35.78015 -5.18401 36933 ft 403 kts 215°
2026-05-06 14:37 35.73171 -5.21965 36934 ft 403 kts 215°
2026-05-06 14:37 35.68356 -5.25506 36935 ft 403 kts 215°
2026-05-06 14:38 35.63550 -5.29066 36918 ft 404 kts 215°
2026-05-06 14:38 35.58752 -5.32669 36929 ft 403 kts 217°
2026-05-06 14:39 35.54196 -5.36607 36924 ft 399 kts 220°
2026-05-06 14:39 35.49757 -5.40704 36925 ft 399 kts 220°
2026-05-06 14:40 35.45284 -5.44764 36930 ft 400 kts 219°
2026-05-06 14:40 35.40777 -5.48755 36935 ft 400 kts 219°
2026-05-06 14:41 35.36256 -5.52728 36912 ft 400 kts 219°
2026-05-06 14:41 35.31743 -5.56705 36934 ft 400 kts 219°
2026-05-06 14:42 35.27226 -5.60694 36943 ft 399 kts 219°
2026-05-06 14:42 35.22717 -5.64669 36959 ft 399 kts 219°
2026-05-06 14:43 35.18210 -5.68639 36964 ft 400 kts 219°
2026-05-06 14:43 35.13651 -5.72646 36514 ft 401 kts 219°
2026-05-06 14:44 35.11391 -5.74630 36412 ft 400 kts 219°
2026-05-06 14:44 35.09158 -5.76585 36290 ft 400 kts 219°
2026-05-06 14:45 35.02344 -5.82542 36027 ft 400 kts 219°
2026-05-06 14:45 34.97818 -5.86498 35852 ft 400 kts 219°
2026-05-06 14:46 34.93293 -5.90440 35663 ft 400 kts 219°
2026-05-06 14:46 34.88792 -5.94413 35498 ft 399 kts 220°
2026-05-06 14:47 34.84518 -5.98616 35319 ft 389 kts 223°
2026-05-06 14:47 34.82455 -6.00730 35217 ft 387 kts 223°
2026-05-06 14:47 34.80394 -6.02837 35133 ft 387 kts 223°
2026-05-06 14:48 34.76250 -6.07002 34959 ft 386 kts 222°
2026-05-06 14:48 34.72086 -6.11124 34804 ft 385 kts 222°
2026-05-06 14:49 34.67931 -6.15225 34637 ft 384 kts 222°
2026-05-06 14:49 34.63786 -6.19313 34478 ft 384 kts 221°
2026-05-06 14:50 34.59642 -6.23397 34321 ft 384 kts 221°
2026-05-06 14:50 34.55493 -6.27477 34128 ft 384 kts 221°
2026-05-06 14:51 34.51284 -6.31464 33962 ft 386 kts 216°
2026-05-06 14:51 34.46434 -6.34324 33535 ft 391 kts 204°
2026-05-06 14:51 34.43815 -6.35279 32597 ft 395 kts 202°
2026-05-06 14:52 34.41123 -6.36224 31544 ft 401 kts 201°
2026-05-06 14:52 34.38456 -6.37152 30497 ft 406 kts 201°
2026-05-06 14:52 34.35683 -6.38119 29300 ft 413 kts 201°
2026-05-06 14:52 34.32907 -6.39088 28044 ft 418 kts 201°
2026-05-06 14:53 34.30100 -6.40069 26781 ft 423 kts 200°
2026-05-06 14:53 34.27254 -6.41067 25487 ft 428 kts 200°
2026-05-06 14:53 34.24377 -6.42076 24211 ft 434 kts 200°
2026-05-06 14:53 34.21464 -6.43094 22815 ft 438 kts 199°
2026-05-06 14:54 34.18508 -6.44128 21346 ft 444 kts 199°
2026-05-06 14:54 34.15555 -6.45157 20559 ft 437 kts 199°
2026-05-06 14:54 34.12648 -6.46165 20219 ft 433 kts 199°
2026-05-06 14:54 34.09750 -6.47171 20034 ft 434 kts 199°
2026-05-06 14:55 34.06851 -6.48181 19891 ft 434 kts 199°
2026-05-06 14:55 34.03945 -6.49195 19921 ft 435 kts 199°
2026-05-06 14:55 34.01046 -6.50207 19931 ft 435 kts 200°
2026-05-06 14:55 33.98227 -6.51481 19929 ft 430 kts 209°
2026-05-06 14:56 33.95689 -6.53355 19931 ft 427 kts 219°
2026-05-06 14:56 33.93484 -6.55729 19936 ft 425 kts 226°
2026-05-06 14:56 33.91373 -6.58221 19943 ft 425 kts 226°
2026-05-06 14:56 33.89261 -6.60708 19942 ft 425 kts 226°
2026-05-06 14:57 33.87144 -6.63196 19940 ft 425 kts 226°
2026-05-06 14:57 33.85070 -6.65622 19936 ft 406 kts 226°
2026-05-06 14:57 33.83066 -6.67957 19939 ft 398 kts 226°
2026-05-06 14:57 33.81080 -6.70272 19940 ft 396 kts 226°
2026-05-06 14:58 33.79107 -6.72575 19943 ft 396 kts 226°
2026-05-06 14:58 33.77131 -6.74883 19941 ft 395 kts 226°
2026-05-06 14:58 33.75160 -6.77186 19938 ft 395 kts 226°
2026-05-06 14:58 33.73188 -6.79488 19941 ft 396 kts 226°
2026-05-06 14:59 33.71186 -6.81821 19940 ft 396 kts 226°
2026-05-06 14:59 33.69235 -6.84092 19940 ft 396 kts 226°
2026-05-06 14:59 33.67243 -6.86398 19584 ft 390 kts 224°
2026-05-06 14:59 33.65118 -6.88406 18913 ft 389 kts 216°
2026-05-06 15:00 33.62758 -6.89998 18256 ft 389 kts 208°
2026-05-06 15:00 33.60221 -6.91150 17552 ft 389 kts 201°
2026-05-06 15:00 33.57657 -6.92154 16885 ft 386 kts 201°
2026-05-06 15:00 33.55112 -6.93156 16251 ft 384 kts 201°
2026-05-06 15:01 33.52585 -6.94153 15622 ft 381 kts 201°
2026-05-06 15:01 33.50073 -6.95144 15011 ft 379 kts 201°
2026-05-06 15:01 33.47582 -6.96130 14384 ft 376 kts 201°
2026-05-06 15:01 33.45100 -6.97113 13762 ft 374 kts 200°
2026-05-06 15:02 33.42640 -6.98089 13103 ft 371 kts 200°
2026-05-06 15:02 33.40196 -6.99056 12429 ft 369 kts 200°
2026-05-06 15:02 33.37766 -7.00015 11753 ft 366 kts 200°
2026-05-06 15:02 33.35357 -7.00964 11105 ft 363 kts 200°
2026-05-06 15:03 33.32990 -7.01896 10820 ft 350 kts 200°
2026-05-06 15:03 33.30731 -7.02781 10692 ft 333 kts 200°
2026-05-06 15:03 33.28585 -7.03620 10571 ft 318 kts 200°
2026-05-06 15:03 33.26525 -7.04423 10404 ft 306 kts 200°
2026-05-06 15:04 33.24516 -7.05212 10056 ft 302 kts 200°
2026-05-06 15:04 33.22552 -7.05984 9925 ft 289 kts 200°
2026-05-06 15:04 33.20758 -7.06955 9937 ft 280 kts 214°
2026-05-06 15:04 33.19272 -7.08429 9941 ft 278 kts 228°
2026-05-06 15:05 33.18174 -7.10315 9948 ft 277 kts 243°
2026-05-06 15:05 33.17539 -7.12473 9920 ft 276 kts 257°
2026-05-06 15:05 33.17188 -7.14719 9545 ft 274 kts 258°
2026-05-06 15:05 33.16847 -7.16946 9118 ft 274 kts 259°
2026-05-06 15:06 33.16502 -7.19174 8715 ft 272 kts 258°
2026-05-06 15:06 33.16155 -7.21395 8277 ft 272 kts 258°
2026-05-06 15:06 33.15919 -7.22893 7997 ft 271 kts 258°
2026-05-06 15:06 33.15468 -7.25789 7562 ft 265 kts 258°
2026-05-06 15:07 33.15321 -7.27262 7280 ft 266 kts 266°
2026-05-06 15:07 33.15448 -7.29458 6932 ft 264 kts 274°
2026-05-06 15:07 33.15644 -7.31570 6801 ft 246 kts 273°
2026-05-06 15:07 33.15821 -7.33515 6618 ft 227 kts 274°
2026-05-06 15:08 33.15983 -7.35358 6187 ft 221 kts 273°
2026-05-06 15:08 33.16137 -7.37171 5628 ft 220 kts 275°
2026-05-06 15:08 33.16290 -7.38997 5080 ft 223 kts 276°
2026-05-06 15:08 33.16445 -7.40843 4758 ft 223 kts 278°
2026-05-06 15:09 33.16601 -7.42679 4423 ft 222 kts 277°
2026-05-06 15:09 33.16758 -7.44516 4087 ft 223 kts 278°
2026-05-06 15:09 33.16915 -7.46344 3807 ft 220 kts 278°
2026-05-06 15:09 33.17071 -7.48156 3586 ft 217 kts 279°
2026-05-06 15:10 33.17246 -7.49927 3541 ft 208 kts 286°
2026-05-06 15:10 33.17813 -7.51418 3546 ft 193 kts 310°
2026-05-06 15:10 33.18790 -7.52461 3560 ft 186 kts 332°
2026-05-06 15:10 33.19941 -7.52976 3569 ft 166 kts 345°
2026-05-06 15:11 33.20988 -7.53332 3552 ft 148 kts 344°
2026-05-06 15:11 33.21934 -7.53658 3548 ft 139 kts 344°
2026-05-06 15:11 33.22848 -7.53974 3521 ft 139 kts 344°
2026-05-06 15:11 33.23794 -7.54298 3193 ft 142 kts 343°
2026-05-06 15:12 33.24742 -7.54627 2815 ft 143 kts 344°
2026-05-06 15:12 33.25674 -7.54965 2662 ft 135 kts 343°
2026-05-06 15:12 33.26563 -7.55309 2572 ft 135 kts 342°
2026-05-06 15:12 33.27457 -7.55612 2342 ft 131 kts 344°
2026-05-06 15:13 33.28359 -7.55926 2134 ft 134 kts 344°
2026-05-06 15:13 33.29250 -7.56242 1900 ft 137 kts 345°
2026-05-06 15:13 33.30156 -7.56558 1692 ft 134 kts 344°
2026-05-06 15:13 33.31044 -7.56850 1454 ft 131 kts 345°
2026-05-06 15:14 33.31932 -7.57155 1315 ft 132 kts 345°
2026-05-06 15:14 33.32824 -7.57446 1189 ft 132 kts 343°
2026-05-06 15:14 33.33690 -7.57740 998 ft 126 kts 343°
2026-05-06 15:14 33.34529 -7.58033 822 ft 127 kts 343°
2026-05-06 15:15 33.35398 -7.58324 700 ft 129 kts 343°
2026-05-06 15:15 33.36227 -7.58610 650 ft 113 kts 344°
2026-05-06 15:15 33.36856 -7.58828 652 ft 72 kts 344°
2026-05-06 15:15 33.37229 -7.58957 652 ft 47 kts 344°
2026-05-06 15:16 33.37518 -7.59052 653 ft 36 kts 345°
2026-05-06 15:16 33.37734 -7.59125 648 ft 24 kts 346°
2026-05-06 15:16 33.37827 -7.59050 647 ft 17 kts 72°
2026-05-06 15:16 33.37859 -7.58920 652 ft 16 kts 74°
2026-05-06 15:17 33.37875 -7.58833 653 ft 6 kts 94°
2026-05-06 15:17 33.37889 -7.58766 653 ft 17 kts 73°
2026-05-06 15:17 33.37906 -7.58633 653 ft 10 kts 125°
2026-05-06 15:17 33.37854 -7.58550 653 ft 22 kts 128°
2026-05-06 15:18 33.37723 -7.58460 653 ft 19 kts 165°
2026-05-06 15:18 33.37608 -7.58437 653 ft 16 kts 175°
2026-05-06 15:18 33.37519 -7.58411 653 ft 7 kts 163°
2026-05-06 15:18 33.37512 -7.58369 653 ft 5 kts 70°
2026-05-06 15:19 33.37525 -7.58334 654 ft 4 kts 65°
2026-05-06 15:19 33.37535 -7.58309 655 ft 0 kts 64°
2026-05-06 15:19 33.37535 -7.58308 655 ft 0 kts 64°
2026-05-06 15:20 33.37535 -7.58307 655 ft 1 kts 64°
2026-05-06 15:20 33.37536 -7.58306 655 ft 0 kts 65°